When you browse on this site, cookies collect data to enhance your experience and personalize the content and advertising you see.
Visit our Privacy Policy to learn more. By continuing to use the site, you agree to this use of cookies and data.
  • Em Portugal
  • Lista de países
  • Para 7 dias
  • Temperatura da água
  • Mapa do tempo
  • Widgets de tempo
  • user-avatar
    Iniciar Sessão

    Previsão horária em Bogorovschina

    Hoje, 20 Setembro, Sexta-feira

    Tempo Temperatura Precipitação Vento Pressão Humidade
    00:00 +4°C° 0 mm 3 m/s 745 mmHg 91%
    01:00 +4°C° 0 mm 3 m/s 745 mmHg 93%
    02:00 +3°C° 0 mm 3 m/s 745 mmHg 95%
    03:00 +4°C° 0 mm 4 m/s 745 mmHg 94%
    04:00 +4°C° 0 mm 4 m/s 745 mmHg 92%
    05:00 +4°C° 0 mm 4 m/s 745 mmHg 91%
    06:00 +5°C° 0.1 mm 5 m/s 745 mmHg 88%
    07:00 +4°C° 0.1 mm 6 m/s 745 mmHg 84%
    08:00 +5°C° 0 mm 6 m/s 745 mmHg 79%
    09:00 +7°C° 0 mm 6 m/s 745 mmHg 74%
    10:00 +7°C° 0 mm 6 m/s 745 mmHg 70%
    11:00 +8°C° 0 mm 7 m/s 745 mmHg 65%
    12:00 +8°C° 0.1 mm 6 m/s 746 mmHg 63%
    13:00 +8°C° 0.1 mm 6 m/s 746 mmHg 61%
    14:00 +9°C° 0.1 mm 6 m/s 746 mmHg 59%
    15:00 +8°C° 0.1 mm 5 m/s 746 mmHg 60%
    16:00 +8°C° 0.1 mm 4 m/s 746 mmHg 61%
    17:00 +8°C° 0.1 mm 4 m/s 746 mmHg 63%
    18:00 +7°C° 0 mm 3 m/s 747 mmHg 67%
    19:00 +5°C° 0 mm 3 m/s 747 mmHg 71%
    20:00 +3°C° 0 mm 3 m/s 747 mmHg 75%
    21:00 +3°C° 0 mm 3 m/s 747 mmHg 77%
    22:00 +3°C° 0 mm 2 m/s 747 mmHg 79%
    23:00 +3°C° 0 mm 2 m/s 748 mmHg 81%

    Amanhã, 21 Setembro, Sábado

    Tempo Temperatura Precipitação Vento Pressão Humidade
    00:00 +3°C° 0 mm 2 m/s 748 mmHg 82%
    01:00 +3°C° 0 mm 2 m/s 748 mmHg 82%
    02:00 +2°C° 0 mm 2 m/s 748 mmHg 83%
    03:00 +3°C° 0 mm 2 m/s 748 mmHg 82%
    04:00 +3°C° 0 mm 2 m/s 748 mmHg 82%
    05:00 +3°C° 0 mm 2 m/s 747 mmHg 81%
    06:00 +3°C° 0 mm 3 m/s 747 mmHg 78%
    07:00 +4°C° 0 mm 3 m/s 747 mmHg 75%
    08:00 +5°C° 0 mm 4 m/s 747 mmHg 72%
    09:00 +5°C° 0.2 mm 4 m/s 746 mmHg 76%
    10:00 +5°C° 0.2 mm 5 m/s 746 mmHg 81%
    11:00 +5°C° 0.2 mm 5 m/s 745 mmHg 85%
    12:00 +6°C° 0.7 mm 5 m/s 745 mmHg 89%
    13:00 +6°C° 0.7 mm 5 m/s 745 mmHg 92%
    14:00 +7°C° 0.7 mm 4 m/s 744 mmHg 96%
    15:00 +8°C° 0.3 mm 5 m/s 744 mmHg 95%
    16:00 +10°C° 0.3 mm 5 m/s 744 mmHg 94%
    17:00 +12°C° 0.3 mm 5 m/s 744 mmHg 92%
    18:00 +12°C° 0.1 mm 5 m/s 744 mmHg 93%
    19:00 +12°C° 0.1 mm 5 m/s 744 mmHg 93%
    20:00 +12°C° 0.1 mm 5 m/s 744 mmHg 93%
    21:00 +12°C° 0.1 mm 5 m/s 744 mmHg 93%
    22:00 +11°C° 0.1 mm 6 m/s 744 mmHg 93%
    23:00 +10°C° 0.1 mm 6 m/s 744 mmHg 94%

    Depois de amanhã, 22 Setembro, Domingo

    Tempo Temperatura Precipitação Vento Pressão Humidade
    00:00 +10°C° 0 mm 6 m/s 744 mmHg 94%
    01:00 +10°C° 0 mm 6 m/s 744 mmHg 94%
    02:00 +9°C° 0 mm 6 m/s 744 mmHg 95%
    03:00 +9°C° 0 mm 6 m/s 744 mmHg 94%
    04:00 +9°C° 0 mm 6 m/s 744 mmHg 94%
    05:00 +9°C° 0 mm 6 m/s 744 mmHg 93%
    06:00 +9°C° 0 mm 6 m/s 744 mmHg 92%
    07:00 +10°C° 0 mm 6 m/s 744 mmHg 90%
    08:00 +10°C° 0 mm 5 m/s 744 mmHg 89%
    09:00 +12°C° 0 mm 5 m/s 744 mmHg 84%
    10:00 +13°C° 0 mm 5 m/s 743 mmHg 79%
    11:00 +15°C° 0 mm 6 m/s 743 mmHg 74%
    12:00 +16°C° 0 mm 6 m/s 743 mmHg 71%
    13:00 +16°C° 0 mm 7 m/s 743 mmHg 68%
    14:00 +17°C° 0 mm 7 m/s 743 mmHg 65%
    15:00 +17°C° 0 mm 6 m/s 743 mmHg 68%
    16:00 +16°C° 0 mm 6 m/s 743 mmHg 72%
    17:00 +15°C° 0 mm 5 m/s 743 mmHg 75%
    18:00 +13°C° 0 mm 4 m/s 743 mmHg 80%
    19:00 +12°C° 0 mm 4 m/s 744 mmHg 84%
    20:00 +10°C° 0 mm 3 m/s 744 mmHg 89%
    21:00 +9°C° 0 mm 3 m/s 745 mmHg 85%
    22:00 +8°C° 0 mm 3 m/s 745 mmHg 80%
    23:00 +7°C° 0 mm 3 m/s 745 mmHg 76%

    23 Setembro, Segunda-feira

    Tempo Temperatura Precipitação Vento Pressão Humidade
    00:00 +5°C° 0 mm 3 m/s 746 mmHg 75%
    01:00 +6°C° 0 mm 2 m/s 746 mmHg 75%
    02:00 +5°C° 0 mm 2 m/s 747 mmHg 74%
    03:00 +4°C° 0 mm 2 m/s 747 mmHg 76%
    04:00 +4°C° 0 mm 2 m/s 747 mmHg 77%
    05:00 +3°C° 0 mm 2 m/s 747 mmHg 79%
    06:00 +3°C° 0 mm 3 m/s 747 mmHg 77%
    07:00 +3°C° 0 mm 3 m/s 747 mmHg 75%
    08:00 +4°C° 0 mm 3 m/s 747 mmHg 73%
    09:00 +5°C° 0 mm 3 m/s 747 mmHg 67%
    10:00 +8°C° 0 mm 3 m/s 748 mmHg 61%
    11:00 +9°C° 0 mm 3 m/s 748 mmHg 54%
    12:00 +10°C° 0 mm 3 m/s 748 mmHg 51%
    13:00 +10°C° 0 mm 3 m/s 747 mmHg 49%
    14:00 +11°C° 0 mm 3 m/s 747 mmHg 46%
    15:00 +10°C° 0 mm 3 m/s 746 mmHg 50%
    16:00 +10°C° 0 mm 2 m/s 746 mmHg 53%
    17:00 +10°C° 0 mm 2 m/s 746 mmHg 56%
    18:00 +8°C° 0 mm 2 m/s 746 mmHg 58%
    19:00 +7°C° 0 mm 3 m/s 746 mmHg 59%
    20:00 +5°C° 0 mm 3 m/s 746 mmHg 61%
    21:00 +4°C° 0 mm 3 m/s 746 mmHg 62%
    22:00 +4°C° 0 mm 3 m/s 746 mmHg 63%
    23:00 +4°C° 0 mm 3 m/s 746 mmHg 64%

    24 Setembro, Terça-feira

    Tempo Temperatura Precipitação Vento Pressão Humidade
    00:00 +3°C° 0 mm 3 m/s 746 mmHg 64%
    01:00 +3°C° 0 mm 3 m/s 746 mmHg 64%
    02:00 +3°C° 0 mm 3 m/s 746 mmHg 65%
    03:00 +3°C° 0 mm 3 m/s 746 mmHg 66%
    04:00 +1°C° 0 mm 4 m/s 746 mmHg 68%
    05:00 +1°C° 0 mm 4 m/s 745 mmHg 70%
    06:00 +3°C° 0 mm 4 m/s 745 mmHg 68%
    07:00 +3°C° 0 mm 4 m/s 745 mmHg 66%
    08:00 +3°C° 0 mm 5 m/s 745 mmHg 64%
    09:00 +6°C° 0 mm 5 m/s 745 mmHg 60%
    10:00 +7°C° 0 mm 5 m/s 746 mmHg 56%
    11:00 +9°C° 0 mm 5 m/s 746 mmHg 51%
    12:00 +11°C° 0 mm 4 m/s 745 mmHg 51%
    13:00 +11°C° 0 mm 4 m/s 745 mmHg 50%
    14:00 +12°C° 0 mm 4 m/s 745 mmHg 49%
    15:00 +11°C° 0 mm 3 m/s 745 mmHg 52%
    16:00 +11°C° 0 mm 3 m/s 744 mmHg 55%
    17:00 +10°C° 0 mm 2 m/s 744 mmHg 59%
    18:00 +9°C° 0 mm 3 m/s 744 mmHg 62%
    19:00 +7°C° 0 mm 3 m/s 744 mmHg 64%
    20:00 +4°C° 0 mm 3 m/s 744 mmHg 67%
    21:00 +4°C° 0 mm 3 m/s 745 mmHg 67%
    22:00 +3°C° 0 mm 3 m/s 745 mmHg 68%
    23:00 +3°C° 0 mm 3 m/s 745 mmHg 69%

    25 Setembro, Quarta-feira

    Tempo Temperatura Precipitação Vento Pressão Humidade
    00:00 +2°C° 0 mm 3 m/s 745 mmHg 70%
    01:00 +2°C° 0 mm 3 m/s 745 mmHg 72%
    02:00 +1°C° 0 mm 3 m/s 744 mmHg 74%
    03:00 +1°C° 0 mm 3 m/s 744 mmHg 76%
    04:00 +1°C° 0 mm 3 m/s 744 mmHg 77%
    05:00 0°C° 0 mm 3 m/s 744 mmHg 79%
    06:00 +1°C° 0 mm 3 m/s 744 mmHg 75%
    07:00 +2°C° 0 mm 3 m/s 745 mmHg 72%
    08:00 +3°C° 0 mm 3 m/s 745 mmHg 68%
    09:00 +5°C° 0 mm 3 m/s 745 mmHg 63%
    10:00 +8°C° 0 mm 3 m/s 745 mmHg 57%
    11:00 +10°C° 0 mm 4 m/s 745 mmHg 52%
    12:00 +10°C° 0 mm 3 m/s 745 mmHg 50%
    13:00 +11°C° 0 mm 3 m/s 745 mmHg 48%
    14:00 +12°C° 0 mm 3 m/s 745 mmHg 45%
    15:00 +11°C° 0 mm 3 m/s 745 mmHg 50%
    16:00 +11°C° 0 mm 3 m/s 745 mmHg 54%
    17:00 +10°C° 0 mm 2 m/s 744 mmHg 58%
    18:00 +8°C° 0 mm 3 m/s 745 mmHg 61%
    19:00 +7°C° 0 mm 3 m/s 745 mmHg 64%
    20:00 +4°C° 0 mm 3 m/s 745 mmHg 67%
    21:00 +4°C° 0 mm 3 m/s 745 mmHg 68%
    22:00 +3°C° 0 mm 4 m/s 745 mmHg 69%
    23:00 +3°C° 0 mm 4 m/s 746 mmHg 70%
    Mostrar mais